Temperature
18 18 18 18 18 18 18 18 17 17 17 17 16 16 15 15 15 14 14 14 14 14 14 14 14 14 14 14 14 14 14 15 15 15 15 15 15 15 16 16 16 16 17
18 18 18 18 18 18 18 17 17 17 16 16 15 15 15 14 14 14 13 13 13 13 13 13 13 14 14 14 14 14 14 14 14 14 14 15 15 16 16 16 16 17 17
19 19 18 18 18 18 18 17 17 16 16 15 15 14 14 14 14 13 13 13 13 13 13 13 13 13 13 13 14 14 14 14 14 14 14 14 15 15 16 16 17 17 17
19 19 19 18 18 18 17 17 17 16 15 15 14 14 13 13 12 12 12 12 13 13 13 13 13 13 13 13 13 13 13 13 14 14 14 14 14 15 16 16 17 17 16
20 19 19 19 18 18 18 17 16 16 15 14 14 13 13 12 12 12 12 12 12 12 12 12 12 12 12 12 13 13 13 13 13 13 14 14 14 14 15 15 16 16 17
20 20 19 19 18 18 17 17 16 15 15 14 14 13 12 12 11 11 11 11 11 11 12 12 12 12 12 12 12 12 12 13 13 13 13 13 14 14 14 15 15 16 17
20 20 19 19 18 18 17 16 16 15 14 14 13 12 12 11 11 11 10 10 10 10 11 11 11 11 11 11 11 11 12 12 12 13 13 13 13 13 14 14 15 16 16
20 19 19 18 18 17 17 16 15 14 14 13 12 12 11 11 10 10 10 10 10 9 10 10 10 10 10 10 10 11 11 11 12 12 12 13 13 13 13 14 14 15 16
19 19 19 18 18 17 16 15 14 14 13 12 12 11 11 11 10 10 10 9 9 9 9 9 9 9 10 10 10 10 10 11 11 11 11 12 12 13 13 13 13 14 15
19 19 18 18 17 16 16 15 14 13 13 12 11 11 11 10 10 10 9 9 9 9 9 9 9 9 9 9 9 9 10 10 10 10 11 11 12 12 12 13 13 13 14
19 19 18 18 17 16 15 14 13 13 12 11 11 11 10 10 10 9 9 9 9 8 8 8 8 8 9 9 9 9 9 9 10 10 10 10 11 11 12 12 12 13 13
19 18 18 17 16 15 14 13 13 12 12 11 11 10 10 10 9 9 9 9 8 8 8 8 8 8 8 8 8 8 9 9 9 9 9 10 10 11 11 11 12 12 13
18 18 17 16 15 14 14 13 12 12 11 11 11 10 10 10 9 9 9 8 8 8 8 8 8 8 8 8 8 8 8 8 8 9 9 9 10 10 10 11 11 11 12
18 17 16 15 15 14 13 13 12 11 11 11 10 10 10 9 9 9 8 8 8 8 8 7 7 7 7 7 7 8 8 8 8 8 8 9 9 9 10 10 10 11 11
17 16 16 15 14 13 13 12 12 11 11 10 10 10 9 9 9 9 8 8 8 8 7 7 7 7 7 7 7 7 7 7 7 8 8 8 8 9 9 10 10 10 10
17 16 15 15 14 13 12 12 11 11 11 10 10 10 9 9 9 8 8 8 8 8 8 8 8 7 7 7 7 7 6 7 7 7 7 8 8 8 9 9 10 10 10
17 16 15 14 13 13 12 12 11 11 10 10 10 9 9 9 8 8 8 8 8 8 8 8 8 8 8 7 7 7 6 6 7 7 7 7 7 8 8 9 9 9 10
17 16 15 14 13 13 12 11 11 11 10 10 9 9 9 8 8 8 8 8 8 8 8 8 8 7 8 7 7 7 6 6 6 6 7 7 7 7 8 8 9 9 10
16 16 15 14 13 12 12 11 11 10 10 10 9 9 8 8 8 8 8 8 8 8 8 8 8 7 7 7 7 7 6 6 6 6 6 6 7 7 7 8 8 9 9
16 15 14 14 13 12 11 11 10 10 10 9 9 9 8 8 8 8 8 8 8 8 8 8 8 7 7 7 7 7 6 6 6 6 6 6 6 7 7 7 8 8 9
16 15 15 14 13 12 11 11 10 10 9 9 9 9 8 8 8 8 8 8 8 8 8 8 8 7 7 7 7 7 6 6 6 6 6 6 6 7 7 7 8 8 9
16 15 15 14 13 12 11 10 10 10 9 9 9 9 8 8 7 7 8 8 8 8 8 8 7 7 7 7 7 6 6 6 6 6 6 6 6 6 7 7 7 8 8
16 15 14 13 13 12 11 10 10 9 9 9 9 9 8 8 8 7 8 8 8 8 8 8 7 7 7 7 6 6 6 6 6 6 6 6 6 7 7 7 7 8 8
16 15 14 13 13 12 11 10 10 9 9 9 9 8 8 8 8 8 8 8 8 8 8 8 7 7 7 7 6 6 6 6 6 6 6 6 6 7 7 7 7 8 8
16 15 14 13 12 12 11 10 10 9 9 9 9 8 8 8 8 8 8 8 8 8 8 8 7 7 7 7 6 6 6 6 6 6 6 6 7 7 7 7 8 8 8
16 15 14 13 12 12 11 10 10 9 9 9 8 8 8 8 8 8 9 9 9 8 8 8 8 7 7 7 6 6 6 6 6 6 6 7 7 7 7 7 8 8 8
Wind_Speed
6 7 7 7 6 5 5 5 5 3 3 3 3 3 4 5 5 4 6 6 6 5 2 2 3 3 3 4 5 4 5 4 3 3 3 4 7 9 9 9 9 11 14
7 7 7 7 7 6 6 6 6 4 4 2 1 1 1 2 2 3 5 8 8 8 5 3 4 3 2 4 4 3 3 3 2 2 2 2 3 6 10 9 10 11 9
10 9 9 9 7 7 8 7 6 5 4 3 1 2 3 3 4 4 5 6 9 9 7 5 4 3 2 2 3 3 2 3 3 2 2 2 3 2 3 8 10 9 9
9 9 8 8 8 7 6 6 6 5 4 3 2 1 0 2 3 3 4 7 7 8 8 6 4 3 2 2 3 2 1 2 3 3 3 3 3 2 3 3 6 9 10
10 9 8 7 6 5 5 6 5 4 3 3 3 2 1 3 3 4 5 6 6 7 7 6 4 3 2 3 3 3 2 2 2 2 2 3 3 3 3 4 3 3 6
9 8 5 4 3 4 4 5 5 3 3 3 2 2 3 3 4 5 5 5 5 5 7 7 5 4 4 4 4 4 4 3 3 3 2 2 2 2 2 3 3 4 4
6 4 5 5 4 5 4 4 4 3 3 3 3 3 4 3 4 4 4 4 4 4 6 5 5 5 5 6 5 5 5 4 4 4 3 3 3 2 2 3 3 3 3
5 7 7 6 5 5 4 3 3 2 3 3 4 4 4 3 3 4 4 5 4 5 5 5 5 6 6 7 6 5 6 5 5 6 5 3 4 3 2 2 2 2 2
8 7 6 6 5 4 4 4 4 3 3 4 4 4 4 4 5 5 5 5 5 6 6 6 6 6 6 6 6 5 6 6 6 7 6 5 4 3 3 2 2 2 2
7 7 6 5 4 4 3 3 3 3 4 4 4 4 4 5 5 5 6 7 6 6 7 7 7 7 7 7 6 6 6 6 7 6 7 6 5 4 4 3 2 3 3
7 5 5 4 4 3 3 2 3 3 4 5 5 5 5 5 5 6 7 7 7 7 7 8 8 8 8 8 7 7 7 7 7 7 7 8 7 5 5 4 3 3 3
6 6 5 4 3 3 3 4 4 5 5 5 5 5 6 6 6 7 8 8 8 8 8 8 8 9 9 8 8 9 9 8 8 8 8 9 7 7 6 5 5 4 4
7 4 4 4 4 5 5 5 6 6 6 5 5 5 6 6 7 8 8 8 8 9 8 8 9 9 9 9 9 10 10 10 10 9 9 9 8 8 6 6 6 5 5
7 5 4 4 5 6 6 6 6 6 6 5 5 6 7 8 8 8 8 8 8 8 9 9 9 9 10 10 10 10 10 11 11 10 9 9 9 9 9 7 7 6 5
6 5 4 4 5 6 6 6 6 6 5 5 6 7 8 8 7 8 8 8 8 9 9 9 9 9 9 10 10 10 11 10 10 10 9 10 12 14 10 8 8 7 6
5 4 4 4 5 6 6 5 6 6 5 6 7 7 7 7 7 8 8 8 9 9 9 9 9 10 10 13 15 13 10 9 10 10 9 10 12 14 15 15 14 12 9
6 5 5 5 6 6 5 5 5 5 5 6 7 7 7 7 8 9 9 9 9 9 9 9 10 11 13 17 18 19 12 11 11 11 10 12 12 11 9 11 14 14 16
6 5 5 5 5 4 4 4 4 5 6 7 7 7 7 8 9 9 9 10 9 9 10 10 11 11 13 16 17 18 13 11 11 11 11 11 11 11 9 8 8 8 10
7 6 5 4 4 5 5 4 5 5 6 7 7 7 7 9 9 10 11 10 9 10 10 10 10 11 13 15 16 15 8 9 11 12 12 12 12 14 14 9 8 7 7
5 5 4 3 3 5 4 3 5 6 7 7 8 7 8 9 10 11 11 10 9 10 10 10 10 10 11 14 15 13 6 8 9 9 10 14 14 14 15 10 9 9 8
6 5 3 2 4 5 3 4 6 7 8 7 7 8 8 9 10 9 9 10 10 10 9 10 9 9 10 11 13 11 5 7 7 7 7 7 13 14 14 11 8 10 8
6 5 3 4 5 4 3 5 7 7 7 7 7 8 9 9 10 9 10 10 9 9 9 8 8 7 7 7 9 10 9 8 7 6 6 7 11 12 13 10 11 12 9
6 4 4 4 5 5 4 6 7 6 6 6 8 9 10 9 9 9 10 10 8 7 7 7 7 7 6 6 8 9 9 7 5 5 7 8 9 9 9 11 12 9 6
6 4 4 4 5 6 5 6 6 5 5 7 8 8 9 10 9 8 8 8 8 8 7 7 7 6 5 5 4 5 5 5 4 4 4 4 6 6 6 7 7 6 6
5 5 5 5 7 6 6 6 5 4 5 7 8 8 8 9 9 9 8 9 9 9 8 7 7 6 7 6 6 5 4 4 4 3 2 1 2 3 4 4 5 5 5
6 5 5 6 6 6 6 5 5 4 5 7 7 7 8 8 8 9 11 13 12 14 14 13 10 8 10 10 9 8 8 8 6 2 2 2 3 3 4 5 5 5 6
Wind_Direction
169 168 173 169 160 151 141 137 126 111 87 59 42 24 353 340 342 340 343 342 335 331 317 303 306 312 303 294 287 280 279 275 264 269 275 261 241 235 233 227 226 228 228
181 188 193 190 183 177 174 169 160 143 127 125 141 175 268 308 321 333 342 341 334 326 319 292 278 282 293 314 317 299 285 286 254 224 255 279 267 241 231 223 226 227 224
191 196 197 199 193 191 190 180 172 159 155 150 111 22 12 355 349 338 331 324 324 321 314 299 276 263 252 277 300 312 297 285 283 241 222 234 246 282 255 227 227 224 220
199 203 204 200 196 198 185 172 169 164 166 152 132 132 105 289 278 285 301 313 321 323 321 307 291 272 255 264 281 298 290 294 295 289 257 243 234 241 291 284 237 225 223
202 200 201 196 186 174 161 157 153 160 176 177 171 170 230 248 275 299 320 325 326 330 335 326 319 310 289 279 290 307 302 282 281 281 283 276 259 227 236 281 295 252 228
199 198 191 158 136 126 127 139 151 181 205 206 209 214 249 273 298 312 319 318 317 322 332 336 332 320 310 298 289 282 289 284 283 278 264 261 279 263 238 252 276 269 246
188 167 141 124 125 129 137 148 161 198 229 236 253 257 261 263 272 282 280 292 303 307 312 329 330 322 312 303 296 286 282 278 280 274 262 250 253 263 253 252 266 278 279
136 132 137 138 140 144 148 158 174 215 247 256 269 274 271 255 258 261 263 273 273 276 282 297 308 308 307 307 303 290 279 277 272 276 271 259 256 253 253 257 272 295 302
136 139 143 146 153 152 161 173 182 217 252 263 269 270 263 252 259 270 271 274 274 279 288 295 297 297 298 297 300 291 286 283 272 270 270 264 258 246 241 239 234 238 262
143 142 149 161 168 171 180 188 194 218 247 262 262 263 261 264 266 272 278 277 277 278 286 288 288 289 290 290 290 286 282 281 275 269 268 267 260 253 241 228 227 227 231
161 165 171 177 178 182 194 214 234 246 265 267 264 270 272 270 270 269 269 269 269 271 271 272 276 280 282 283 282 279 280 276 278 278 271 264 260 255 249 232 221 224 222
173 177 179 187 203 219 235 244 249 255 258 257 260 263 266 271 273 271 269 266 265 265 262 262 264 269 274 272 272 276 280 271 269 271 269 267 266 254 245 236 229 222 219
178 181 195 217 233 241 251 252 254 258 262 262 263 270 275 276 274 272 272 270 266 265 264 260 257 260 263 264 263 263 266 265 260 258 257 259 258 255 245 236 232 225 229
185 193 219 244 253 255 256 254 261 259 262 263 267 273 274 273 272 273 275 273 269 266 264 259 255 255 255 256 259 259 260 262 261 256 251 250 247 246 240 236 229 221 220
186 194 212 237 255 264 267 263 261 265 265 269 273 272 275 278 279 280 280 279 274 276 267 265 261 258 258 260 255 252 259 258 260 259 254 251 252 248 240 232 220 211 210
184 187 206 239 262 269 270 266 267 271 271 274 277 280 285 288 286 285 284 284 280 277 274 268 264 264 271 268 262 258 254 251 252 255 254 257 263 258 249 240 225 209 204
191 207 233 248 260 263 257 259 264 274 284 285 286 288 290 292 290 294 296 288 285 280 278 272 267 266 265 263 263 262 257 247 246 245 246 258 259 252 241 239 233 223 216
203 228 242 253 259 256 257 260 274 290 294 293 292 293 296 295 294 293 291 288 283 280 278 277 272 271 274 269 263 262 258 247 243 241 238 239 246 249 236 232 231 224 218
204 217 227 231 249 264 258 274 295 299 299 295 292 293 296 298 299 297 295 291 288 285 281 277 275 275 279 276 271 266 256 246 244 242 239 234 236 237 227 221 221 222 226
201 209 221 234 270 271 264 283 294 298 293 288 288 292 296 297 298 295 293 291 287 284 285 283 279 276 278 280 279 272 251 247 249 247 241 237 233 229 217 210 209 214 216
194 188 197 245 265 269 264 282 290 286 280 284 293 298 298 297 294 291 291 292 292 291 287 285 285 283 280 285 287 281 248 240 248 248 241 235 229 224 217 206 206 213 202
189 186 204 255 270 269 258 277 282 276 284 293 301 301 299 301 308 300 299 295 292 291 290 288 292 290 289 290 296 294 274 248 243 245 237 231 227 222 216 209 212 212 201
196 202 211 255 277 271 250 266 270 278 293 303 304 302 302 300 297 296 298 300 295 289 289 287 287 291 292 296 307 309 300 272 245 244 245 236 224 216 211 207 201 195 190
199 203 213 255 274 270 260 253 265 277 293 301 301 301 303 305 305 300 294 293 292 290 288 285 283 285 288 290 305 311 308 292 271 265 266 247 212 199 189 184 183 184 186
200 197 210 239 257 263 267 265 264 271 292 297 297 299 299 300 305 302 295 290 280 271 270 272 267 269 279 272 276 286 289 285 273 279 265 225 179 172 169 168 172 183 185
190 197 216 235 252 261 267 264 254 258 286 298 301 300 303 304 303 305 309 299 287 286 275 257 251 254 251 266 277 282 285 286 279 265 241 234 212 195 184 179 181 192 195
Height
1535 1535 1535 1534 1534 1534 1534 1534 1533 1532 1531 1529 1527 1525 1523 1521 1519 1517 1515 1514 1512 1510 1509 1507 1505 1503 1501 1499 1497 1495 1494 1492 1491 1489 1488 1487 1488 1489 1491 1494 1497 1500 1503
1534 1534 1534 1533 1533 1533 1532 1532 1531 1530 1528 1526 1524 1522 1520 1518 1515 1513 1512 1510 1508 1507 1505 1504 1502 1500 1499 1497 1494 1492 1491 1489 1489 1487 1486 1485 1485 1484 1486 1488 1490 1492 1496
1531 1531 1531 1531 1531 1530 1530 1529 1528 1527 1525 1523 1522 1519 1517 1514 1512 1510 1508 1506 1504 1503 1501 1500 1498 1497 1496 1494 1492 1490 1489 1487 1486 1486 1486 1484 1482 1481 1482 1482 1484 1486 1489
1529 1529 1529 1529 1529 1528 1528 1527 1526 1524 1522 1521 1519 1516 1513 1510 1508 1506 1504 1502 1500 1499 1497 1495 1494 1493 1492 1491 1490 1488 1487 1485 1484 1483 1483 1483 1482 1481 1479 1479 1480 1481 1483
1527 1527 1527 1527 1527 1527 1526 1525 1523 1522 1520 1518 1516 1513 1510 1508 1505 1503 1501 1498 1497 1495 1493 1491 1490 1489 1489 1488 1487 1485 1484 1483 1481 1480 1480 1480 1480 1479 1479 1477 1477 1477 1478
1525 1526 1526 1526 1526 1525 1524 1523 1521 1520 1518 1516 1513 1510 1507 1505 1502 1499 1497 1495 1493 1491 1490 1488 1486 1485 1484 1483 1483 1482 1481 1480 1479 1478 1477 1477 1477 1476 1476 1475 1475 1474 1475
1524 1524 1525 1525 1524 1524 1522 1521 1519 1517 1515 1513 1510 1507 1504 1501 1499 1496 1494 1491 1489 1487 1485 1483 1482 1481 1480 1479 1478 1477 1476 1476 1475 1474 1474 1473 1473 1474 1474 1473 1472 1472 1472
1523 1523 1523 1523 1522 1521 1520 1518 1516 1514 1512 1509 1506 1504 1501 1498 1496 1493 1490 1487 1485 1483 1481 1479 1477 1476 1475 1474 1473 1472 1471 1471 1470 1470 1470 1469 1469 1470 1470 1471 1471 1470 1470
1521 1521 1521 1521 1520 1518 1516 1515 1513 1510 1508 1505 1503 1500 1498 1495 1492 1489 1486 1483 1481 1478 1476 1475 1473 1471 1470 1468 1467 1466 1466 1465 1465 1465 1465 1464 1465 1465 1466 1467 1468 1469 1468
1520 1520 1519 1518 1517 1515 1513 1511 1509 1507 1504 1502 1499 1496 1494 1491 1488 1485 1482 1479 1477 1474 1472 1470 1468 1466 1464 1463 1462 1460 1460 1459 1459 1459 1459 1459 1460 1461 1461 1462 1463 1465 1466
1518 1517 1516 1515 1514 1512 1510 1508 1506 1503 1500 1498 1495 1492 1489 1486 1483 1481 1478 1475 1472 1470 1468 1465 1463 1461 1459 1458 1456 1455 1454 1453 1452 1453 1453 1453 1454 1455 1456 1457 1458 1459 1461
1515 1514 1514 1513 1511 1509 1507 1504 1502 1499 1496 1494 1491 1488 1485 1482 1479 1476 1473 1470 1467 1465 1463 1460 1458 1456 1454 1452 1451 1449 1448 1447 1446 1446 1446 1447 1448 1449 1450 1452 1453 1454 1456
1512 1512 1511 1509 1507 1505 1503 1500 1497 1495 1492 1489 1487 1484 1480 1477 1474 1470 1467 1465 1462 1459 1457 1455 1452 1450 1448 1447 1445 1443 1442 1440 1440 1439 1440 1440 1442 1442 1444 1446 1447 1449 1450
1510 1509 1508 1506 1504 1501 1499 1496 1493 1491 1488 1485 1482 1479 1475 1472 1468 1465 1462 1459 1456 1453 1450 1448 1446 1444 1442 1440 1438 1436 1435 1434 1433 1432 1432 1433 1434 1436 1438 1440 1441 1443 1445
1507 1506 1504 1502 1500 1498 1495 1492 1489 1487 1484 1480 1477 1474 1470 1467 1463 1460 1456 1453 1450 1447 1444 1442 1439 1437 1435 1432 1430 1429 1427 1426 1425 1425 1425 1426 1427 1428 1430 1433 1435 1438 1439
1504 1503 1501 1499 1496 1493 1491 1488 1485 1482 1479 1476 1472 1469 1465 1461 1458 1454 1450 1446 1443 1440 1438 1435 1432 1430 1427 1425 1423 1421 1420 1418 1418 1417 1417 1418 1419 1421 1423 1425 1428 1431 1433
1500 1499 1497 1494 1492 1489 1486 1483 1481 1478 1475 1471 1467 1464 1460 1456 1452 1448 1444 1440 1437 1434 1431 1428 1425 1422 1419 1417 1415 1413 1411 1410 1409 1408 1409 1409 1410 1413 1415 1417 1421 1423 1426
1496 1494 1492 1490 1488 1485 1482 1480 1477 1474 1470 1466 1462 1459 1455 1450 1446 1442 1438 1435 1431 1428 1425 1422 1418 1415 1411 1409 1406 1404 1402 1400 1400 1400 1400 1400 1401 1404 1407 1410 1413 1416 1419
1492 1491 1489 1486 1484 1481 1478 1475 1472 1469 1465 1461 1458 1454 1449 1445 1440 1436 1433 1429 1426 1422 1419 1416 1412 1408 1404 1401 1398 1396 1393 1392 1391 1391 1391 1392 1393 1395 1399 1402 1405 1408 1412
1488 1487 1485 1482 1480 1477 1474 1471 1468 1464 1460 1457 1453 1449 1444 1440 1435 1431 1427 1424 1421 1417 1414 1410 1406 1402 1398 1395 1392 1389 1386 1384 1383 1382 1383 1384 1385 1387 1391 1395 1398 1402 1406
1485 1483 1481 1479 1476 1473 1470 1467 1463 1460 1456 1452 1448 1444 1440 1435 1431 1427 1423 1420 1416 1412 1408 1405 1401 1397 1393 1389 1386 1383 1380 1378 1376 1375 1375 1376 1378 1381 1384 1388 1392 1395 1401
1481 1479 1477 1475 1472 1469 1466 1463 1459 1456 1452 1448 1444 1439 1435 1431 1426 1422 1418 1415 1412 1407 1403 1399 1395 1392 1388 1384 1381 1378 1375 1373 1371 1370 1370 1371 1373 1375 1378 1382 1386 1391 1395
1477 1475 1473 1471 1468 1465 1462 1459 1455 1451 1447 1443 1439 1435 1430 1426 1422 1418 1414 1411 1407 1403 1399 1395 1390 1387 1383 1380 1377 1374 1372 1369 1368 1367 1367 1367 1368 1371 1374 1377 1382 1386 1390
1472 1471 1469 1467 1464 1461 1458 1455 1451 1447 1443 1439 1435 1430 1426 1422 1418 1414 1411 1407 1403 1399 1395 1390 1386 1382 1379 1376 1373 1371 1369 1367 1366 1365 1364 1364 1366 1368 1370 1374 1378 1382 1386
1468 1467 1465 1463 1460 1457 1454 1450 1447 1443 1439 1435 1430 1426 1422 1418 1414 1410 1407 1403 1400 1396 1391 1387 1383 1378 1375 1373 1370 1368 1366 1365 1364 1363 1363 1363 1364 1365 1368 1371 1375 1379 1382
1463 1462 1460 1458 1456 1453 1450 1447 1443 1439 1435 1430 1426 1422 1418 1414 1410 1406 1402 1399 1396 1392 1387 1383 1379 1375 1372 1369 1367 1365 1364 1363 1362 1362 1362 1362 1362 1364 1366 1369 1372 1376 1379